Temperature
12 12 12 12 12 12 12 12 12 12 12 12 11 11 11 11 11 11 11 11 11 11 11 11 11 11 11 11 11 11 11 11 11 11 11 11 11 11 11 10 10 10 10
11 11 11 11 11 11 11 11 11 11 11 11 11 11 11 11 11 10 10 11 11 11 11 11 11 11 11 10 10 10 10 10 11 10 10 10 10 10 10 10 10 10 10
11 11 11 11 11 11 11 11 11 11 11 11 11 11 11 10 10 10 10 10 10 10 10 10 10 10 10 10 10 10 10 10 10 10 10 10 10 10 10 9 9 9 9
10 10 10 10 11 11 11 10 10 10 10 10 10 10 10 10 10 10 10 10 10 10 10 10 10 10 10 10 10 10 10 10 10 10 9 9 9 9 9 9 9 9 9
10 10 10 10 10 10 10 10 10 10 10 10 10 10 10 10 10 10 10 10 10 10 10 10 10 10 10 10 10 9 10 10 9 9 9 9 9 9 9 8 8 8 8
9 10 10 10 10 10 10 10 10 10 10 10 10 10 9 9 9 9 9 9 10 10 10 10 9 9 10 9 9 9 9 9 9 9 9 9 8 8 8 8 8 8 8
9 9 9 9 9 9 10 9 9 9 9 9 9 9 9 9 9 9 9 9 9 9 9 9 9 9 9 9 9 9 9 9 9 8 8 8 8 8 8 8 7 7 7
8 9 9 9 9 9 9 9 9 9 9 9 9 8 8 8 8 8 9 9 9 9 9 9 9 9 9 9 9 9 9 8 8 8 8 8 8 8 7 7 7 7 7
8 8 8 8 8 8 8 9 9 9 9 9 8 8 8 8 7 8 8 8 8 8 8 8 9 8 8 8 8 8 8 8 8 8 7 7 7 7 7 7 6 6 6
8 8 8 8 8 8 8 8 8 8 8 8 8 8 8 8 8 7 7 8 8 8 8 8 8 8 8 8 8 8 8 8 8 7 7 7 7 7 6 6 6 6 6
7 7 7 8 8 8 8 8 8 8 8 8 8 8 8 8 8 7 7 7 7 8 8 8 8 8 8 8 8 8 8 8 7 7 7 7 6 6 6 6 6 6 6
7 7 7 7 7 7 7 7 8 7 8 7 7 8 8 8 8 8 7 7 7 7 7 7 7 7 8 8 8 7 7 7 7 7 7 7 6 6 6 6 6 5 5
7 7 7 7 7 7 7 7 7 7 7 7 7 7 7 7 7 7 7 7 6 6 7 7 7 7 7 7 7 7 7 7 7 7 7 7 6 6 6 6 6 5 5
7 7 6 6 6 6 7 6 6 7 7 7 7 7 7 7 7 7 7 7 6 6 6 6 7 7 7 7 7 7 7 7 7 6 6 6 6 6 6 6 6 5 5
6 6 6 6 6 6 6 6 6 6 6 6 6 6 6 6 6 7 7 6 6 5 5 6 6 6 6 6 6 6 6 6 6 6 6 6 6 6 5 5 5 5 5
5 6 6 6 6 6 6 6 6 6 6 6 6 6 6 6 6 6 6 6 6 5 5 5 6 6 6 6 6 6 6 6 6 6 6 5 5 5 5 5 4 4 4
5 5 5 5 5 5 5 5 5 5 5 6 5 5 5 5 5 5 5 5 5 5 5 5 5 5 5 5 5 5 5 5 5 5 5 5 5 5 4 4 4 4 4
4 4 4 4 5 5 5 5 5 5 5 5 5 5 5 5 5 5 5 5 5 5 5 5 4 5 5 5 5 5 5 5 5 5 5 4 4 4 4 4 3 3 3
4 4 4 4 4 4 4 4 4 4 4 4 4 4 4 4 4 4 4 4 4 4 4 4 4 4 4 4 4 4 4 4 4 4 4 4 4 3 3 3 3 3 3
4 4 4 4 4 4 4 4 4 4 4 4 4 4 4 4 4 4 4 4 4 4 3 3 3 3 3 3 3 3 3 3 3 3 3 3 3 3 3 3 3 2 2
3 4 4 4 4 4 4 4 3 3 3 3 3 3 3 3 3 3 3 3 3 3 3 3 3 3 3 3 3 3 3 3 3 3 3 3 2 2 2 2 2 2 1
3 3 3 3 3 3 3 3 3 3 3 3 3 3 3 3 3 3 3 3 3 3 2 2 2 2 2 2 2 2 2 2 2 2 2 2 2 1 1 1 1 1 1
3 3 3 3 3 3 3 3 3 3 3 2 2 2 2 2 2 2 2 2 2 2 2 2 2 2 2 2 2 2 1 1 1 1 1 1 1 1 1 0 0 0 -0
2 2 2 2 2 3 2 2 2 2 2 2 2 2 2 2 2 2 2 2 2 2 2 2 2 2 1 1 1 1 1 1 1 0 0 -0 -0 -0 -0 -0 -0 -1 -1
2 2 2 2 2 2 2 2 2 2 2 2 2 2 2 2 2 1 1 1 1 1 1 1 1 1 1 1 1 1 0 0 -0 -0 -1 -1 -1 -1 -1 -1 -1 -1 -1
1 1 1 1 1 1 1 1 1 1 1 1 1 1 1 1 1 1 1 1 1 1 1 1 1 1 1 0 0 0 0 -0 -1 -1 -1 -2 -2 -2 -2 -2 -2 -2 -2
Wind_Speed
3 3 3 4 5 6 6 5 6 6 6 6 6 6 6 6 5 5 6 7 6 6 6 8 9 8 8 8 7 7 7 7 7 7 7 7 7 6 6 6 6 7 7
3 3 4 4 4 5 6 6 6 5 5 5 5 5 5 5 5 5 5 6 6 5 5 6 7 8 8 7 7 7 7 7 6 6 6 6 6 6 5 6 6 6 7
4 4 3 4 4 6 6 6 7 5 4 5 5 5 4 4 5 5 4 4 5 5 5 4 6 6 6 7 7 8 7 6 6 5 5 5 5 5 4 4 5 5 5
5 4 4 4 4 5 5 5 5 5 5 4 4 4 3 3 4 5 4 4 4 4 4 4 4 5 6 7 7 7 7 6 6 5 5 4 4 4 3 4 4 4 4
5 4 3 3 5 4 5 6 5 5 5 4 3 3 2 3 3 4 4 4 4 3 4 5 5 4 4 6 7 7 7 6 6 5 5 4 3 3 3 3 3 2 2
5 4 3 4 4 4 4 5 6 5 5 4 4 3 1 2 2 3 3 4 4 4 4 4 4 4 4 4 6 6 7 7 6 5 4 3 3 2 2 2 1 1 1
5 4 3 4 4 4 5 6 5 6 5 4 3 3 1 1 1 1 2 3 4 4 4 4 4 4 4 5 5 5 6 7 6 5 4 3 3 3 3 2 2 1 1
4 4 5 4 4 4 6 7 6 5 4 4 3 3 2 2 2 2 2 3 4 4 4 4 4 4 4 5 5 5 5 6 6 6 5 4 4 4 4 4 3 3 2
4 4 5 5 5 5 6 7 8 6 6 4 3 3 3 4 3 3 4 3 4 4 4 4 5 5 5 4 5 5 5 5 7 7 6 5 5 4 4 4 3 3 3
4 4 5 5 5 5 7 8 7 6 7 6 4 2 2 2 3 3 4 4 4 4 4 4 5 6 5 4 4 4 5 6 7 7 7 7 6 6 5 5 5 5 5
3 4 4 5 5 5 6 7 7 6 6 6 5 3 2 2 3 3 3 4 4 4 4 5 4 5 6 5 5 4 5 6 7 8 8 7 7 7 6 6 6 6 6
3 4 4 4 5 5 6 6 6 7 6 6 5 5 4 3 4 3 3 4 4 4 4 4 4 5 5 5 5 5 5 6 7 8 8 8 7 7 7 6 7 7 7
3 4 4 4 4 5 6 6 6 6 7 7 6 5 5 4 3 3 3 3 3 3 3 4 4 5 6 6 6 7 6 6 7 8 8 8 8 7 7 7 7 8 8
4 4 4 5 5 5 6 6 5 6 7 7 7 6 4 3 3 3 3 3 3 3 4 5 4 5 6 6 6 8 7 7 7 7 8 8 7 6 7 7 7 8 8
3 4 4 4 4 5 6 6 6 7 7 7 6 6 5 3 3 3 3 4 4 4 5 5 4 5 5 6 6 7 7 7 8 8 8 7 6 5 6 7 7 7 7
3 4 4 4 4 4 5 5 5 6 7 6 5 6 6 4 3 3 3 4 4 4 4 3 3 3 4 5 6 7 7 7 8 9 8 8 7 7 7 7 7 7 7
3 4 4 4 5 5 5 5 5 6 6 6 6 7 6 5 4 4 4 4 4 4 4 3 3 3 4 5 5 6 6 6 7 8 9 9 8 8 8 8 8 8 8
3 4 4 5 5 5 5 6 6 5 6 6 6 6 6 5 5 5 4 5 5 4 4 5 3 3 4 5 4 5 4 5 6 7 9 9 10 9 9 9 9 9 8
4 4 5 5 5 5 5 5 6 6 6 5 6 6 6 6 6 5 5 5 4 4 4 4 3 2 3 3 3 3 4 4 5 6 8 9 10 9 9 9 9 9 8
3 4 4 5 5 5 5 5 5 5 5 5 5 5 6 7 7 6 5 5 4 4 4 4 3 3 3 3 3 3 3 4 4 4 6 6 7 9 9 9 8 8 8
3 3 3 3 4 4 5 5 5 5 5 5 5 5 5 6 6 5 5 5 5 5 4 4 4 3 4 3 4 3 4 3 4 4 4 4 5 6 6 7 8 8 8
2 2 3 3 4 4 5 6 5 5 5 5 5 5 5 5 6 6 6 6 6 6 6 5 5 6 6 5 4 4 4 3 3 3 3 3 3 4 5 6 6 7 7
2 2 2 2 3 3 5 6 6 4 5 5 5 5 4 4 5 5 6 6 6 7 7 7 7 7 6 6 5 6 6 5 4 2 2 3 3 4 3 4 5 6 6
1 1 1 1 2 2 3 4 5 4 4 5 5 5 5 5 5 5 5 5 6 6 7 7 7 7 6 5 6 6 5 3 2 1 3 3 3 3 3 4 5 6 6
1 1 1 1 1 2 2 3 3 3 3 4 4 5 5 5 6 6 6 5 5 4 4 6 6 6 6 7 6 4 4 3 3 2 2 3 2 2 3 3 4 5 6
1 1 0 1 1 1 1 2 2 2 3 2 3 3 5 6 6 7 6 6 6 5 4 3 4 4 5 5 7 6 5 5 3 3 3 3 2 1 2 2 2 4 5
Wind_Direction
193 183 176 170 174 172 168 164 162 162 162 161 162 160 159 156 152 148 135 124 131 139 149 153 150 147 147 146 141 135 129 121 112 106 106 102 98 94 89 90 84 74 67
185 186 183 174 173 175 173 166 161 161 160 156 157 159 160 154 154 150 140 126 125 133 143 155 157 155 154 152 147 143 138 131 121 113 112 108 106 100 91 94 88 80 71
181 181 185 182 177 175 170 163 159 160 159 157 157 156 156 157 159 153 146 140 133 123 121 148 163 162 160 155 151 149 145 143 138 127 119 116 114 108 103 100 93 81 71
181 179 180 184 174 171 165 163 163 162 163 165 157 150 152 157 167 162 154 148 148 147 128 121 148 167 172 164 160 156 154 152 149 141 131 124 124 123 116 109 98 82 70
178 174 173 176 173 171 172 167 167 166 165 158 148 140 153 163 169 170 167 163 161 162 159 134 131 133 167 174 172 166 166 165 157 151 144 136 136 138 132 117 107 91 72
175 167 160 168 169 172 173 168 162 160 161 152 134 118 126 156 168 171 174 170 168 173 179 172 170 153 150 176 182 175 173 168 162 161 160 160 161 164 168 164 148 129 79
177 169 167 168 175 179 176 170 159 156 156 146 137 121 104 140 163 169 184 183 179 184 186 185 190 184 171 162 170 178 181 179 176 179 184 188 193 199 211 216 212 213 245
190 183 178 175 179 181 176 173 170 164 161 166 164 155 169 198 207 211 197 197 198 192 193 195 196 198 193 187 167 169 186 197 197 198 202 206 211 217 225 230 230 231 252
198 195 185 177 181 187 183 182 183 179 175 178 185 175 181 201 186 196 202 203 206 204 200 199 201 203 205 202 192 183 189 204 214 212 213 219 222 227 230 236 235 247 260
203 199 193 186 186 192 191 189 190 189 182 181 190 211 219 168 188 188 200 211 216 217 211 206 204 204 207 209 205 196 194 206 219 223 222 224 229 233 235 240 245 254 263
207 200 197 191 189 194 195 195 188 193 193 189 189 187 185 186 209 208 208 205 219 226 221 219 213 206 205 211 212 203 199 211 222 229 230 231 236 238 241 246 252 258 265
210 207 198 194 196 197 196 197 194 199 200 195 197 196 196 194 199 210 217 209 218 223 225 227 222 213 204 209 214 200 200 212 224 233 238 240 242 242 244 250 257 263 269
211 209 205 203 202 199 196 196 196 204 203 198 201 205 208 207 196 211 208 209 223 229 226 230 224 218 211 212 213 206 210 214 227 234 241 245 246 246 247 252 258 264 269
217 205 210 212 208 200 196 197 201 207 209 204 205 205 207 203 194 198 201 202 217 233 229 228 218 221 216 215 215 208 216 215 222 233 241 248 251 245 246 251 259 267 272
224 209 213 214 210 204 200 200 206 208 208 204 203 204 209 206 205 203 201 209 214 233 239 226 218 216 219 221 212 216 222 215 219 228 237 243 245 238 241 248 255 262 270
219 213 215 215 208 204 202 203 209 209 205 203 200 205 210 208 206 206 207 216 228 238 245 233 228 223 213 223 216 225 229 219 221 227 233 238 237 237 239 246 253 258 263
215 212 215 214 207 202 202 206 209 206 206 202 201 207 210 208 209 208 210 215 224 231 239 253 239 227 224 227 221 224 230 228 226 224 232 240 238 238 238 245 251 256 259
216 218 216 214 212 206 203 208 207 206 208 205 204 207 209 206 212 212 212 215 222 225 228 238 245 235 236 232 233 222 227 233 236 228 232 238 237 239 241 246 249 253 256
209 213 213 212 212 209 204 208 209 208 211 210 209 210 210 208 212 215 216 215 219 221 226 226 239 248 252 235 238 238 238 243 246 240 236 236 238 240 242 245 246 248 253
209 211 212 212 213 211 206 206 210 209 212 216 217 216 216 216 215 212 215 217 215 212 213 217 226 237 240 238 233 236 239 242 253 246 238 236 237 235 236 240 242 243 251
213 216 211 214 213 209 206 201 205 209 213 217 218 219 221 219 219 218 215 213 212 215 213 217 225 229 226 224 225 226 238 245 257 245 243 236 235 238 236 233 236 240 248
203 207 210 217 217 216 197 197 203 207 211 214 216 217 215 212 212 218 223 224 224 223 220 222 231 232 233 233 227 224 232 242 253 219 239 253 243 242 242 242 237 242 247
193 207 223 228 231 218 195 199 201 206 210 215 217 217 218 217 215 217 218 223 234 239 236 232 233 237 239 231 222 223 227 233 248 220 222 248 243 257 261 251 240 245 250
193 210 230 253 248 231 200 199 196 208 214 217 218 220 218 218 217 214 218 226 233 236 235 237 241 245 247 235 225 226 229 231 251 231 222 242 252 261 268 257 237 243 252
196 219 229 238 248 236 186 184 199 209 211 218 223 221 219 222 213 210 217 227 234 241 236 233 241 245 241 233 218 200 192 201 232 230 224 240 251 272 272 258 239 241 256
192 187 227 250 252 259 193 190 200 212 209 213 223 225 223 225 216 214 224 227 229 234 228 229 230 231 232 221 209 211 204 206 221 228 202 212 231 262 266 251 255 258 263
Height
1510 1512 1513 1515 1517 1519 1521 1523 1524 1526 1528 1530 1531 1533 1535 1537 1538 1539 1540 1541 1542 1544 1545 1545 1546 1547 1547 1548 1548 1548 1549 1549 1549 1549 1550 1550 1550 1550 1550 1550 1549 1549 1549
1507 1509 1511 1513 1514 1516 1518 1520 1522 1524 1526 1528 1530 1531 1533 1535 1536 1538 1539 1540 1541 1542 1543 1544 1545 1546 1546 1547 1547 1547 1548 1548 1548 1549 1549 1549 1549 1549 1549 1549 1549 1549 1548
1505 1506 1508 1510 1512 1514 1516 1518 1520 1522 1524 1526 1528 1529 1531 1533 1534 1536 1537 1538 1539 1541 1542 1543 1544 1544 1545 1546 1546 1546 1547 1547 1547 1548 1548 1548 1548 1548 1548 1548 1548 1548 1547
1502 1504 1505 1508 1510 1512 1514 1515 1517 1520 1522 1524 1525 1527 1529 1531 1532 1534 1535 1537 1538 1539 1540 1540 1542 1543 1543 1544 1545 1545 1545 1546 1546 1547 1547 1547 1547 1547 1547 1547 1547 1547 1546
1500 1501 1503 1505 1507 1509 1511 1513 1514 1517 1519 1521 1523 1525 1527 1528 1530 1531 1533 1535 1536 1537 1538 1539 1540 1540 1541 1542 1543 1544 1544 1544 1545 1545 1546 1546 1546 1546 1546 1546 1546 1545 1545
1497 1499 1500 1502 1504 1507 1508 1510 1512 1514 1517 1519 1521 1522 1525 1526 1527 1529 1530 1532 1533 1534 1535 1536 1538 1538 1539 1540 1541 1542 1542 1543 1543 1544 1544 1544 1545 1545 1545 1545 1544 1544 1544
1494 1496 1498 1499 1501 1504 1505 1507 1509 1511 1514 1516 1518 1520 1522 1524 1525 1526 1528 1529 1530 1531 1533 1534 1535 1536 1537 1538 1539 1540 1540 1541 1542 1542 1542 1543 1543 1543 1543 1543 1543 1542 1542
1492 1493 1495 1496 1499 1501 1503 1504 1507 1508 1510 1513 1515 1518 1520 1523 1522 1523 1524 1526 1527 1529 1530 1531 1532 1533 1534 1535 1536 1537 1538 1539 1539 1540 1540 1540 1541 1541 1541 1541 1540 1540 1540
1489 1490 1492 1493 1496 1498 1500 1502 1504 1505 1507 1510 1513 1515 1517 1518 1519 1520 1521 1523 1524 1525 1526 1528 1529 1530 1531 1532 1533 1534 1535 1536 1537 1537 1538 1538 1538 1538 1538 1538 1538 1538 1537
1486 1488 1489 1491 1493 1495 1497 1499 1501 1503 1505 1506 1509 1512 1514 1515 1517 1517 1518 1519 1521 1522 1523 1524 1526 1527 1528 1529 1530 1531 1532 1533 1534 1535 1535 1535 1535 1535 1535 1535 1535 1535 1534
1483 1485 1486 1488 1490 1492 1494 1496 1498 1500 1502 1503 1505 1507 1509 1511 1513 1514 1514 1516 1517 1518 1519 1521 1522 1523 1524 1525 1526 1527 1529 1529 1530 1531 1531 1532 1532 1532 1532 1532 1532 1531 1531
1480 1481 1483 1485 1487 1489 1491 1493 1494 1496 1498 1500 1502 1504 1506 1507 1508 1510 1511 1512 1513 1514 1515 1516 1517 1519 1520 1521 1522 1524 1525 1526 1526 1527 1528 1528 1528 1528 1528 1528 1528 1527 1527
1477 1478 1479 1481 1483 1485 1487 1489 1490 1492 1494 1496 1498 1500 1502 1504 1505 1507 1508 1509 1510 1510 1511 1512 1513 1515 1516 1517 1518 1519 1520 1521 1522 1522 1523 1524 1524 1524 1524 1524 1524 1523 1523
1474 1475 1477 1479 1480 1482 1484 1485 1487 1488 1490 1492 1494 1496 1498 1500 1502 1503 1505 1506 1506 1507 1507 1508 1509 1511 1512 1513 1514 1515 1516 1517 1517 1518 1518 1519 1519 1519 1519 1519 1519 1519 1518
1471 1472 1474 1476 1477 1478 1480 1482 1483 1484 1486 1488 1490 1492 1494 1496 1497 1499 1501 1502 1504 1503 1503 1504 1505 1506 1507 1508 1509 1510 1511 1512 1513 1513 1513 1514 1514 1514 1514 1515 1515 1514 1513
1468 1469 1471 1472 1473 1475 1477 1478 1479 1480 1482 1484 1486 1488 1490 1491 1493 1495 1496 1498 1499 1500 1500 1500 1501 1502 1503 1504 1505 1506 1506 1507 1508 1508 1508 1509 1509 1509 1509 1509 1509 1509 1508
1465 1466 1467 1469 1470 1472 1473 1474 1475 1477 1478 1480 1482 1483 1485 1487 1489 1490 1492 1493 1494 1496 1495 1496 1497 1498 1499 1499 1500 1501 1502 1502 1502 1503 1503 1503 1503 1503 1504 1504 1504 1504 1503
1463 1464 1465 1466 1467 1468 1469 1471 1472 1473 1474 1476 1477 1479 1481 1483 1484 1486 1487 1488 1490 1491 1492 1491 1492 1493 1494 1495 1496 1496 1497 1497 1498 1498 1498 1498 1498 1498 1498 1498 1498 1498 1497
1460 1461 1462 1463 1464 1465 1466 1467 1468 1469 1470 1472 1473 1475 1477 1479 1480 1481 1483 1484 1485 1486 1487 1487 1488 1489 1490 1490 1491 1491 1492 1493 1493 1493 1493 1493 1493 1493 1493 1493 1492 1492 1492
1457 1458 1458 1459 1460 1461 1462 1464 1465 1465 1467 1468 1470 1471 1473 1474 1475 1477 1478 1479 1481 1482 1483 1483 1484 1485 1485 1486 1486 1487 1487 1488 1488 1488 1487 1487 1487 1487 1487 1487 1487 1486 1486
1454 1455 1455 1456 1457 1458 1459 1460 1461 1462 1463 1464 1466 1467 1469 1470 1471 1473 1474 1475 1476 1477 1478 1479 1480 1480 1481 1481 1482 1482 1483 1483 1482 1482 1482 1482 1482 1482 1481 1481 1481 1480 1480
1451 1452 1452 1453 1454 1454 1455 1456 1457 1458 1459 1460 1461 1463 1464 1466 1467 1469 1470 1471 1472 1473 1474 1474 1475 1476 1476 1477 1478 1478 1478 1477 1477 1478 1477 1477 1477 1476 1476 1476 1475 1475 1475
1448 1448 1449 1449 1450 1451 1452 1453 1454 1455 1455 1456 1457 1459 1460 1461 1463 1464 1465 1466 1468 1469 1470 1471 1471 1471 1472 1472 1473 1473 1473 1473 1472 1472 1472 1471 1472 1471 1471 1470 1470 1470 1470
1445 1445 1446 1446 1446 1447 1448 1449 1450 1451 1452 1453 1454 1455 1456 1457 1459 1460 1461 1462 1463 1464 1465 1466 1466 1466 1467 1468 1469 1469 1468 1468 1467 1467 1467 1467 1466 1466 1466 1466 1466 1465 1465
1442 1443 1443 1444 1444 1444 1445 1446 1447 1448 1448 1449 1451 1452 1453 1454 1455 1457 1458 1458 1459 1459 1460 1461 1461 1461 1462 1463 1464 1464 1463 1463 1462 1463 1463 1463 1462 1461 1462 1462 1462 1461 1461
1440 1441 1441 1442 1442 1442 1443 1443 1444 1445 1445 1446 1447 1448 1450 1451 1452 1453 1453 1454 1454 1455 1456 1456 1456 1457 1457 1458 1458 1459 1458 1458 1458 1458 1458 1458 1458 1458 1457 1457 1457 1457 1456